Home > Weather > Dayton > Past weeks

Flag for USA Weather for the Past 2 Weeks in Dayton, Ohio, USA

Now
44 °F

Clear.


Feels Like: 44 °F
Forecast: 45 / 69 °F
Wind: 2 mph from Southeast

Location: Dayton / Wright-Patterson Air Force Base

Current Time: May 6, 2016 at 5:18:23 AM

Latest Report: May 6, 2016 at 4:58 AM


Visibility: 10 mi

Pressure: 29.92 "Hg

Humidity: 92%

Dew Point: 41 °F

Location of DaytonLocation

Historic Weather in Dayton — Graph

°F

Dayton Temperature Yesterday

Maximum temperature yesterday: 62 °F (at 5:58 PM)
Minimum temperature yesterday: 40 °F (at 6:58 AM)
Average temperature yesterday: 49 °F

High & Low Weather Summary for the Past Weeks

 TemperatureHumidityPressure
High81 °F (Apr 26, 2:47 PM)100% (Apr 21, 11:58 PM)30.17 "Hg (Apr 21, 11:58 PM)
Low40 °F (May 5, 6:58 AM)33% (Apr 24, 4:58 PM)29.64 "Hg (May 4, 1:58 PM)
Average57 °F80%29.91 "Hg
* Reported Apr 21 3:58 AM — May 6 3:58 AM, Dayton, Weather by CustomWeather, © 2016

Note: Actual official high and low records may vary slightly from our data, if they occured in-between our weather recording intervals... More about our weather records

Advertising

Dayton Weather History for the Previous 24 Hours

Scroll right to see more
 ConditionsComfort  
Time TempWeatherWind HumidityBarometerVisibility
3:58 AM
Fri, May 6
46 °FClear.3 mph86%29.91 "Hg10 mi
2:58 AM48 °FClear.7 mph80%29.91 "Hg10 mi
1:58 AM44 °FClear.1 mph97%29.91 "Hg10 mi
12:58 AM45 °FClear.No wind93%29.92 "Hg10 mi
11:58 PM
Thu, May 5
48 °FPassing clouds.No wind87%29.90 "Hg10 mi
10:58 PM49 °FPassing clouds.No wind82%29.90 "Hg10 mi
9:58 PM52 °FPassing clouds.No wind72%29.88 "Hg10 mi
8:58 PM56 °FSunny.5 mph61%29.87 "Hg10 mi
7:58 PM59 °FPartly sunny.6 mph51%29.86 "Hg10 mi
6:58 PM61 °FBroken clouds.10 mph42%29.84 "Hg10 mi
5:58 PM62 °FScattered clouds.14 mph49%29.84 "Hg10 mi
4:58 PM61 °FBroken clouds.15 mph55%29.84 "Hg10 mi
3:58 PM59 °FMore clouds than sun.12 mph70%29.84 "Hg10 mi
2:58 PM54 °FOvercast.6 mph81%29.85 "Hg10 mi
1:58 PM51 °FOvercast.6 mph88%29.85 "Hg6 mi
12:58 PM48 °FOvercast.8 mph90%29.86 "Hg10 mi
11:58 AM47 °FOvercast.8 mph92%29.85 "Hg10 mi
10:50 AM45 °FMostly cloudy.5 mph93%29.83 "Hg10 mi
9:58 AM45 °FLight rain. Fog.7 mph93%29.84 "Hg5 mi
8:58 AM44 °FBroken clouds.8 mph88%29.82 "Hg10 mi
7:58 AM43 °FScattered clouds.5 mph89%29.80 "Hg10 mi
6:58 AM40 °FPassing clouds.7 mph94%29.78 "Hg10 mi
5:58 AM41 °FPassing clouds.9 mph93%29.75 "Hg10 mi
Weather by CustomWeather, © 2016

See weather overviewHow to use our weather pages